Weather History for Rogers, AR

Change the Weather History Date:

Wednesday, October 17, 2012

  Actual Average Record
Temperature  
Mean Temperature 60 °F -  
Max Temperature 71 °F 67 °F 84 °F (2005)
Min Temperature 51 °F 46 °F 30 °F (2002)
Degree Days  
Heating Degree Days 5    
Growing Degree Days 10 (Base 50)    
Moisture  
Dew Point 54 °F    
Average Humidity 78    
Maximum Humidity 90    
Minimum Humidity 66    
Precipitation  
Precipitation 0.03 in - - ()
Sea Level Pressure  
Sea Level Pressure 29.60 in    
Wind  
Wind Speed 12 mph (SSW)    
Max Wind Speed 17 mph    
Max Gust Speed 25 mph    
Visibility 10 miles    
Events      
Averages and records for this station are not official NWS values.
T = Trace of Precipitation, MM = Missing Value Source: NWS Daily Summary

Daily Weather History Graph

Daily Weather History Graph

Search for Another Location

Airport:

Trip Planner

Search our weather history database for the weather conditions in past years. The results will help you decide how hot, cold, wet, or windy it might be!

Date:

Astronomy

Oct. 17, 2012 Rise Set
Actual Time 7:25 AM CDT 6:36 PM CDT
Civil Twilight 6:59 AM CDT 7:02 PM CDT
Nautical Twilight 6:29 AM CDT 7:32 PM CDT
Astronomical Twilight 5:59 AM CDT 8:02 PM CDT
Moon 9:55 AM CDT (10/17) 8:19 PM CDT (10/17)
Length of Visible Light 12h 03m
Length of Day
11h 11m
Waxing Crescent, 7% of the Moon is Illuminated
Oct 17
Waxing Crescent
Oct 21
First Quarter
Oct 29
Full
Nov 6
Last Quarter
Nov 13
New

Hourly Weather History & Observations

Time (CDT) Temp. Dew Point Humidity Pressure Visibility Wind Dir Wind Speed Gust Speed Precip Events Conditions
12:57 AM 60.1 °F 48.9 °F 67% 29.62 in 10.0 mi South 12.7 mph - N/A   Clear
1:57 AM 60.1 °F 51.1 °F 72% 29.60 in 10.0 mi SSE 10.4 mph - N/A   Clear
2:57 AM 60.1 °F 53.1 °F 78% 29.59 in 10.0 mi South 11.5 mph - N/A   Clear
3:52 AM 60.8 °F 55.4 °F 82% 29.59 in 10.0 mi South 15.0 mph 25.3 mph N/A   Mostly Cloudy
3:57 AM 62.1 °F 55.9 °F 80% 29.56 in 10.0 mi South 17.3 mph 23.0 mph N/A   Mostly Cloudy
4:15 AM 60.8 °F 55.4 °F 82% 29.58 in 10.0 mi South 13.8 mph 21.9 mph N/A   Scattered Clouds
5:42 AM 62.6 °F 57.2 °F 82% 29.57 in 10.0 mi South 17.3 mph 21.9 mph N/A   Overcast
7:57 AM 63.0 °F 57.9 °F 84% 29.52 in 10.0 mi South 13.8 mph 24.2 mph N/A   Overcast
8:48 AM 64.4 °F 57.2 °F 77% 29.55 in 10.0 mi South 15.0 mph - N/A   Overcast
8:57 AM 64.0 °F 57.9 °F 80% 29.53 in 10.0 mi South 17.3 mph - N/A   Overcast
9:57 AM 64.9 °F 59.0 °F 81% 29.53 in 10.0 mi SSW 17.3 mph 23.0 mph N/A   Overcast
10:57 AM 64.9 °F 59.0 °F 81% 29.56 in 10.0 mi SSW 10.4 mph - N/A   Overcast
11:57 AM 66.0 °F 59.0 °F 78% 29.55 in 10.0 mi South 15.0 mph - N/A   Overcast
12:57 PM 68.0 °F 60.1 °F 76% 29.54 in 10.0 mi SSW 11.5 mph - N/A   Overcast
4:57 PM 63.0 °F 60.1 °F 90% 29.54 in 10.0 mi NW 4.6 mph - 0.03 in   Clear
5:57 PM 63.0 °F 57.9 °F 84% 29.58 in 10.0 mi NW 11.5 mph 21.9 mph N/A   Mostly Cloudy
8:57 PM 54.0 °F 46.9 °F 77% 29.70 in 10.0 mi WNW 6.9 mph - N/A   Clear
9:57 PM 54.0 °F 44.1 °F 69% 29.72 in 10.0 mi NW 6.9 mph - N/A   Clear
10:57 PM 52.0 °F 43.0 °F 71% 29.75 in 10.0 mi WNW 5.8 mph - N/A   Scattered Clouds
11:57 PM 51.1 °F 39.9 °F 66% 29.75 in 10.0 mi WSW 4.6 mph - N/A   Clear